Terug naar catalogus

COSMOS 2499 DEB

ActiefPO
NORAD 56573·DEBRIS·🇷🇺 Russia

Gelanceerd May 23, 2014 vanaf Plesetsk Cosmodrome

Loading…

Volgende Passages (komende 24 uur)

TLE

VersSource: Space-Track

Epoch: Sep 11, 2026, 06:39 UTC

1 56573U 14028BG  26254.27723324  .00006885  00000-0  85482-2 0  9996
2 56573  82.2288  93.7406 0355454 259.0829  97.0129 13.41223688176727

Volg COSMOS 2499 DEB in realtime met AllMySat

Download on the App Store